Location: Calvatone
(45.1167°N, 10.4333°E)
Time: 09:59:11
(UTC+00:00)

Cosmos 1536 Rocket - Pass Details

Date: 28 January 2023
Orbit: 604 x 630 km, 82.5° (Epoch: 28 March)

Event Time Altitude Azimuth Distance (km) Brightness Sun altitude
Rises 18:13:25 0° 200° (SSW) 2,846 7.3 -20.1°
Reaches altitude 10° 18:15:40 10° 206° (SSW) 1,947 6.5 -20.5°
Maximum altitude 18:19:51 50° 282° (WNW) 772 4.4 -21.2°
Drops below altitude 10° 18:24:05 10° 359° (N) 1,965 6.1 -21.9°
Sets 18:26:22 0° 4° (N) 2,875 6.9 -22.3°
